{"data":{"norad_id":57761,"epoch":"2026-09-22T17:32:26.596896Z","epoch_age_seconds":113408,"freshness":"FRESH","line1":"1 57761U 23133E   26265.73086339  .00000063  00000+0  46096-4 0  9995","line2":"2 57761  80.9953 274.3366 0006300 125.3078 234.8668 13.85113450154499","mean_motion":13.8511345,"eccentricity":0.00063,"inclination_deg":80.9953,"raan_deg":274.3366,"arg_perigee_deg":125.3078,"mean_anomaly_deg":234.8668,"bstar":4.6096e-5,"rev_number":15449,"period_min":103.9626032077,"perigee_km":941.19171398937,"apogee_km":950.41988191479,"semimajor_km":7323.9427979521,"source":"CELESTRAK","updated_at":"2026-09-23T09:00:18.337875Z"}}